Location: Riedlingen
(48.1569°N, 9.4757°E)
Time: 08:51:47
(UTC+01:00)

ISS - Visible Passes

Search period start: 17 February 2019 00:00
Search period end: 27 February 2019 00:00
Orbit: 403 x 411 km, 51.6° (Epoch: 17 February)

Date Brightness Start Highest point End Pass type
(mag) Time Alt. Az. Time Alt. Az. Time Alt. Az.
23 Feb -1.2 06:33:33 10° S 06:36:06 21° SE 06:38:37 10° E visible
24 Feb -0.9 05:43:18 10° SSE 05:44:49 13° SE 05:46:21 10° ESE visible
25 Feb -2.6 06:26:17 10° SW 06:29:23 41° SSE 06:32:30 10° ENE visible
26 Feb -1.9 05:35:45 13° SSW 05:38:00 26° SE 05:40:47 10° E visible
